Wind_Speed
6 6 5 5 4 4 4 4 4 6 7 9 10 11 11 11 12 13 13 15 15 16 16 16 15 15 14 14 14 15 15 16 15 14 14 15 15 14 13 13 13 12 11 10 6 6 3 2 1 2 1 5 3 7 10 12 11 10 8 5 3 3 14 20 21 20 22 25 25 24 24 24 25 24 21 20 16 15 18 17 14 13 17 17 17 19 21 19
6 6 6 6 5 5 4 4 4 4 4 6 7 9 11 12 12 13 13 14 15 15 16 16 16 16 15 15 14 14 15 16 16 14 14 15 14 13 14 13 13 12 11 9 7 7 5 4 2 2 5 3 4 8 11 12 12 10 9 6 4 4 13 18 18 20 23 24 24 25 25 23 24 24 23 22 18 16 18 19 19 20 21 20 19 19 20 19
5 5 5 6 6 5 5 5 4 4 4 4 5 6 8 10 11 13 14 14 15 15 15 16 16 16 16 16 15 14 14 15 16 15 15 15 14 13 13 13 12 12 11 10 9 9 7 7 3 4 4 5 7 9 11 13 13 11 9 7 5 5 10 16 18 21 24 24 24 26 25 22 22 21 22 23 20 18 20 23 25 25 24 23 22 19 19 19
5 5 5 4 5 5 5 5 5 6 6 6 5 5 6 7 9 10 12 14 15 15 16 16 15 16 16 16 15 14 14 15 17 15 15 15 14 13 13 13 12 12 11 10 10 10 9 6 3 2 3 9 10 10 11 12 12 10 7 6 5 6 8 15 18 19 24 26 25 26 25 23 22 21 22 23 23 21 22 24 23 22 22 24 24 19 18 18
6 5 4 4 4 4 5 5 6 7 7 8 7 7 6 6 7 8 10 11 14 15 16 16 15 16 15 16 15 15 14 14 16 15 14 15 14 13 12 13 12 11 11 11 10 10 9 5 8 7 7 12 12 11 11 10 11 9 6 6 6 3 3 11 14 16 23 26 26 25 25 23 20 21 23 23 23 23 21 19 16 17 20 21 22 20 18 16
6 5 5 4 4 4 5 6 7 7 8 9 10 10 9 8 8 8 9 9 11 13 15 16 16 15 15 15 14 15 13 12 15 13 11 13 14 13 12 12 12 11 11 11 10 9 9 6 10 10 8 13 13 11 10 10 10 8 6 8 4 1 3 10 14 16 21 22 22 23 24 23 20 22 25 21 21 23 17 14 15 17 18 19 20 20 18 16
6 6 6 6 6 6 6 7 8 8 9 10 11 11 11 10 10 10 10 10 9 10 12 14 16 16 15 14 14 14 13 14 18 14 10 10 11 12 12 11 11 11 9 9 9 10 10 7 10 9 5 12 14 12 10 8 8 7 7 10 3 4 6 11 13 16 19 18 17 19 22 24 23 23 25 21 20 20 16 14 17 19 19 19 20 19 18 16
6 7 7 7 7 7 8 8 8 9 10 10 11 11 10 11 10 11 11 11 10 9 11 12 13 15 15 15 14 12 13 17 21 18 13 10 9 10 12 11 11 10 8 9 9 11 11 8 9 6 3 12 14 12 12 9 7 6 7 8 2 6 9 13 14 16 18 19 18 18 19 22 22 21 23 21 19 19 17 17 20 21 21 20 20 19 17 15
7 7 8 8 8 9 9 9 9 9 9 10 10 10 10 10 10 10 11 11 11 10 10 10 11 13 14 14 13 10 12 17 19 18 15 13 11 9 11 11 11 10 9 10 11 13 12 10 7 2 1 11 15 13 12 9 6 7 6 7 2 5 11 14 16 17 17 19 18 17 19 21 20 20 21 21 20 20 18 18 22 21 21 22 20 18 16 14
8 8 8 8 9 9 9 10 10 10 10 10 10 10 10 10 9 9 10 11 11 10 10 10 10 11 12 13 12 11 11 13 18 18 14 14 13 10 10 10 11 10 9 10 11 14 13 12 8 0 3 12 15 11 10 6 5 8 6 7 4 6 11 14 16 18 17 17 17 18 20 22 22 21 21 21 19 21 20 20 23 22 22 23 20 17 15 13
8 8 8 9 9 9 10 11 11 11 11 11 11 11 10 10 10 9 9 10 10 10 10 9 9 10 11 11 11 11 9 10 19 21 14 12 14 12 10 9 10 10 9 10 11 13 14 15 10 5 3 12 11 5 6 4 4 10 9 7 7 7 10 13 16 19 19 17 18 18 20 23 24 21 22 23 21 21 21 22 24 23 24 23 19 16 14 13
9 9 9 9 9 10 11 12 12 13 13 13 12 11 11 10 10 9 9 9 9 10 10 9 9 9 9 10 10 11 14 14 15 18 12 10 12 12 10 9 10 10 8 9 12 13 15 17 11 6 4 9 10 7 5 2 2 8 10 8 7 8 8 12 14 16 18 19 19 19 20 24 24 22 22 24 24 22 20 24 25 24 25 24 18 19 17 15
9 9 9 9 10 11 12 13 13 14 13 13 13 12 11 10 10 9 8 8 8 8 9 9 8 8 8 9 10 11 15 16 13 15 11 8 11 11 10 9 10 10 9 11 13 10 9 13 12 8 7 5 9 9 3 3 4 4 8 10 9 6 4 9 14 15 17 20 22 20 21 23 25 25 21 23 25 23 22 24 25 25 25 23 19 23 22 18
8 9 9 10 11 12 13 14 14 14 13 13 12 12 11 10 9 8 7 7 7 8 8 8 7 8 7 7 10 10 11 15 17 17 11 8 11 10 10 9 10 10 9 12 14 12 7 9 10 9 12 9 6 9 3 2 6 5 8 11 12 9 2 6 14 17 18 20 22 19 20 23 25 27 22 22 25 23 24 25 24 24 24 22 22 24 24 19
8 8 9 11 12 13 14 14 14 14 13 12 11 10 9 8 7 6 6 6 6 7 6 6 6 6 6 5 7 7 6 11 14 13 9 9 10 9 10 9 10 11 9 12 15 14 11 9 10 13 14 11 6 9 3 3 6 6 5 8 11 11 6 5 11 17 17 18 20 14 15 25 27 28 24 22 25 23 24 25 23 24 23 22 23 23 21 19
8 9 10 12 13 14 14 14 13 12 11 10 8 7 6 6 6 6 5 4 4 4 4 5 4 5 4 4 6 6 4 7 9 8 7 7 7 6 7 8 10 12 10 13 14 14 14 12 14 15 14 12 8 12 3 2 3 1 2 8 10 10 8 7 12 17 16 16 19 12 12 26 29 27 25 23 24 23 24 25 24 25 24 22 23 22 19 19
8 10 11 13 14 14 13 12 11 10 8 6 6 8 10 11 11 11 7 3 3 4 5 4 5 6 4 7 8 6 7 4 6 3 4 5 6 5 4 8 10 11 12 12 13 14 15 13 13 14 13 13 10 11 6 3 5 5 5 7 8 8 8 11 16 18 19 17 19 15 12 24 29 27 26 25 24 22 24 26 24 24 22 22 23 21 17 20
9 10 12 14 14 13 12 11 10 8 7 6 7 9 13 15 14 15 12 5 4 6 7 4 6 8 6 10 10 7 9 2 4 1 5 5 8 4 6 7 8 10 11 11 11 11 12 10 8 10 12 12 11 12 11 7 5 7 8 5 7 8 7 12 16 17 19 19 20 18 14 21 27 27 27 27 25 23 24 23 23 23 22 23 22 18 18 21
9 11 13 13 12 12 10 10 9 7 6 7 7 8 9 13 15 15 12 6 3 5 7 3 6 8 9 13 9 4 3 5 6 1 6 8 12 10 12 9 8 10 11 9 8 7 9 9 7 10 13 12 11 12 12 7 3 5 5 3 5 7 7 10 13 15 17 19 22 20 16 20 25 27 27 29 28 25 23 22 22 22 22 22 21 17 20 21
10 11 12 12 11 10 9 9 9 9 7 6 6 5 4 10 14 14 8 6 6 8 7 0 4 4 10 9 5 4 4 6 7 3 6 8 13 13 11 9 9 9 11 8 5 5 7 9 10 12 13 12 11 11 11 6 3 5 5 3 4 7 8 9 11 14 16 18 22 20 15 19 25 26 25 28 30 26 23 24 23 21 21 22 20 18 20 21
10 11 11 10 10 9 9 10 11 12 12 9 8 6 4 9 13 12 10 5 6 6 6 3 2 8 8 1 4 8 7 6 6 7 6 6 10 10 8 11 11 11 11 12 7 5 6 10 11 10 9 11 11 11 10 8 5 9 7 3 6 8 8 10 10 11 14 16 19 19 14 17 24 25 23 26 30 28 25 26 24 22 21 21 21 20 20 22
10 10 9 9 9 9 9 10 13 15 17 16 15 12 5 5 12 12 13 7 3 5 7 6 7 11 8 7 2 8 6 6 6 6 6 7 9 9 8 9 11 10 8 12 11 11 10 9 10 9 8 10 11 11 9 8 8 12 10 5 9 11 9 12 12 10 11 14 16 18 16 17 23 24 23 27 30 29 28 27 26 24 21 21 23 21 20 23
9 9 8 9 9 9 10 12 14 17 19 20 21 17 6 4 11 10 11 6 3 4 5 7 8 6 4 7 4 10 4 6 5 4 6 8 9 10 9 7 10 10 8 10 12 14 14 8 5 8 12 13 14 12 10 9 10 13 14 10 13 14 9 10 14 12 11 13 14 15 15 15 20 24 25 28 30 29 29 28 27 27 23 22 24 21 20 24
8 7 7 8 8 10 12 15 17 19 19 20 20 19 11 6 10 7 8 6 3 1 2 6 7 3 4 4 7 11 5 7 5 7 8 7 10 10 11 8 7 10 10 12 11 13 16 11 5 6 12 16 16 12 12 14 13 15 17 15 17 14 6 6 13 15 16 13 11 13 12 12 17 23 25 26 29 30 29 29 29 28 25 23 23 22 20 22
6 6 6 7 8 9 11 12 14 15 17 19 19 18 15 10 8 8 8 5 1 2 2 4 3 3 6 6 6 5 6 7 3 8 11 5 11 10 9 9 8 10 10 12 13 12 14 12 9 7 9 14 15 12 12 13 12 12 13 13 14 10 4 7 14 18 20 15 10 12 11 12 19 24 25 26 27 29 29 29 29 28 27 25 23 22 21 22
5 5 6 7 7 7 7 7 6 6 11 16 15 14 12 9 8 10 10 7 5 1 4 3 2 1 3 6 6 2 7 6 1 9 12 7 12 14 8 8 9 11 10 10 13 13 14 11 10 11 10 13 14 11 11 12 10 6 6 7 7 6 6 9 12 15 18 14 11 12 10 8 16 23 25 26 27 29 30 29 30 29 30 28 24 23 23 22
4 4 5 6 6 6 5 5 3 3 6 11 8 3 3 5 7 11 10 6 4 3 6 2 2 2 1 5 6 4 1 0 3 12 10 7 10 15 12 10 8 10 10 9 12 13 13 13 14 12 10 12 15 13 12 12 10 4 9 6 2 4 6 8 10 12 14 13 12 12 12 8 13 23 26 27 28 28 30 31 30 30 31 30 25 24 24 24
3 3 5 5 5 5 4 5 5 4 5 7 7 6 5 5 7 12 9 5 2 5 4 4 3 4 4 4 8 7 1 3 4 10 7 6 10 12 12 10 7 9 9 9 12 9 8 13 15 11 9 11 12 13 14 12 10 10 10 6 1 5 6 9 12 11 12 12 12 14 15 7 10 22 26 27 29 28 30 33 32 31 32 31 27 24 25 25
2 4 4 4 4 4 4 6 7 6 6 5 6 8 7 6 7 10 6 4 2 2 2 3 4 6 2 4 7 9 6 5 5 6 5 6 11 13 12 9 7 8 9 10 12 6 4 9 12 10 13 14 9 10 14 12 12 14 13 12 8 7 10 12 11 11 10 7 8 15 17 8 7 19 27 27 30 30 29 31 33 33 32 31 29 25 24 25
2 4 5 4 4 4 5 7 9 9 7 5 5 6 7 7 8 8 5 3 1 2 2 1 2 4 2 5 5 6 6 5 3 3 4 5 8 12 11 10 8 6 6 12 15 8 4 7 9 10 13 14 10 9 11 13 11 10 15 21 17 12 14 12 9 9 6 3 6 13 18 11 5 15 28 24 23 29 30 29 32 34 32 31 30 26 25 26
3 5 6 5 5 5 6 7 9 8 7 7 7 6 7 9 8 5 3 1 2 4 3 4 3 3 3 7 8 5 3 6 4 4 5 7 7 10 9 10 11 7 5 11 17 13 9 8 7 8 10 12 10 8 9 15 14 10 13 25 22 16 14 9 6 5 1 1 3 7 16 14 6 12 23 19 15 22 28 29 31 33 33 31 31 29 27 27
3 7 7 6 6 6 6 6 7 7 8 9 8 8 9 9 6 7 6 1 2 7 3 5 2 2 5 4 8 7 3 8 7 4 5 7 6 9 10 11 11 9 7 10 14 12 11 11 6 5 8 10 11 8 6 12 16 13 12 21 18 12 9 4 3 4 2 3 0 7 15 12 8 10 14 15 14 17 22 26 28 30 31 30 30 31 28 27
4 7 8 8 7 6 5 5 5 6 7 7 6 9 9 6 6 8 7 2 5 8 3 1 2 2 5 4 5 5 4 7 6 5 7 7 7 9 9 11 13 11 8 6 8 10 10 11 10 10 12 12 15 13 6 8 13 11 13 17 11 7 5 2 3 3 2 5 4 12 13 2 6 9 9 13 14 13 18 24 25 28 30 29 28 29 28 27
4 7 9 9 7 5 4 3 3 4 6 6 5 9 9 8 9 13 8 7 8 7 3 5 5 1 7 7 4 3 4 3 3 4 6 5 8 8 6 8 12 13 9 5 8 10 11 11 14 18 18 15 17 19 14 11 11 13 16 15 10 7 3 2 3 3 5 7 8 13 11 3 5 6 8 11 12 12 18 24 27 27 28 28 27 26 27 28
5 7 10 10 8 6 5 3 1 3 5 6 6 7 10 12 12 14 10 7 11 8 4 5 4 2 4 5 4 5 6 3 2 4 5 5 7 7 8 8 8 9 8 7 7 6 6 9 15 22 20 13 13 17 20 16 11 10 17 16 12 14 11 7 5 8 11 9 7 10 8 5 6 5 7 9 11 14 17 22 28 28 27 29 29 28 29 30
5 7 10 11 8 6 5 3 1 2 4 6 7 6 10 15 12 10 11 9 9 8 6 3 1 4 5 6 6 4 3 5 3 7 7 6 7 8 8 7 6 5 3 4 5 4 5 8 5 19 20 12 8 11 18 19 8 5 14 16 13 15 15 12 6 13 13 6 4 9 6 5 7 5 8 10 10 13 16 20 27 29 29 31 32 30 28 30
4 6 10 11 10 8 6 4 2 1 3 5 8 10 13 14 10 8 11 9 5 8 12 5 2 8 8 2 3 2 3 5 3 6 7 4 6 7 5 4 4 3 4 7 5 4 5 8 6 17 18 14 9 6 12 18 14 8 10 11 10 14 18 16 5 7 7 2 3 10 9 8 8 7 10 13 12 13 14 18 26 30 31 33 33 32 29 30
3 4 7 10 10 9 6 4 2 2 3 4 9 12 13 11 7 7 11 10 7 9 9 5 4 7 8 5 3 2 4 3 2 3 4 1 4 5 2 3 2 1 4 5 6 2 5 9 4 12 14 18 17 9 9 15 17 17 14 7 5 8 13 15 9 3 3 2 3 6 8 10 11 10 12 15 16 15 14 17 24 30 34 35 35 34 31 30
7 7 5 6 7 6 3 2 1 4 5 5 9 12 13 12 6 5 8 8 7 7 6 8 7 4 3 6 5 1 3 2 1 5 4 3 5 5 1 1 2 2 5 6 7 3 8 10 1 2 6 18 22 13 9 12 17 20 18 13 10 7 7 11 13 9 5 3 2 4 7 9 12 11 11 13 15 16 15 16 21 26 32 34 36 35 32 31
9 9 5 5 7 4 3 2 4 6 4 5 9 13 14 12 5 6 9 5 4 7 8 9 8 4 2 4 6 1 4 1 4 3 6 5 4 3 2 2 2 3 5 5 5 6 8 8 7 7 3 13 15 9 7 11 16 17 17 16 15 12 7 7 12 16 12 5 4 5 5 8 11 11 11 12 13 15 15 14 15 19 24 28 32 33 34 34
10 12 10 6 5 6 4 1 4 4 6 9 11 11 11 9 8 7 8 3 6 7 6 6 7 5 3 3 7 5 2 2 2 4 6 6 5 2 2 0 3 4 3 4 5 6 7 7 9 5 3 3 4 5 6 10 14 15 15 15 15 14 11 5 6 14 14 7 4 7 4 4 9 11 12 13 12 12 13 13 12 14 18 22 26 30 33 36
11 14 11 2 7 6 3 3 5 6 10 13 11 10 10 8 8 6 7 7 7 3 2 5 5 4 4 7 5 4 4 1 2 3 3 4 5 5 1 1 5 6 5 8 9 7 6 7 9 7 8 10 5 2 5 8 11 13 13 13 14 13 12 7 2 5 7 6 4 7 7 5 9 12 13 14 12 10 10 11 12 13 14 17 22 27 33 37
12 13 9 5 10 8 6 8 8 10 14 13 10 10 7 5 6 6 8 8 5 1 2 6 5 3 5 6 4 3 6 4 4 3 2 3 4 5 2 3 5 6 9 11 9 5 3 8 13 13 12 9 6 4 3 7 10 12 10 12 17 15 13 12 11 11 7 7 5 5 6 6 11 12 13 16 14 12 11 11 13 14 13 14 17 25 33 38
12 10 8 7 10 11 9 10 9 8 10 10 9 10 8 7 8 7 6 6 6 5 6 6 5 3 2 5 6 7 5 5 4 4 7 5 3 2 2 4 5 8 11 11 10 6 4 12 15 12 8 6 6 7 6 4 1 7 8 9 16 18 14 13 15 16 11 10 7 4 5 8 13 12 12 14 14 14 15 14 15 16 16 15 15 21 31 38
6 6 7 7 12 12 7 10 11 8 9 9 10 12 10 6 6 6 8 6 4 4 5 4 2 2 2 6 5 5 2 1 1 4 7 5 3 3 1 1 4 8 11 12 12 8 4 9 10 7 5 4 4 7 13 16 12 6 7 7 8 10 10 11 14 14 9 6 2 9 12 13 16 14 11 11 11 11 12 14 15 17 18 18 17 20 29 39
5 5 3 1 12 11 6 7 11 9 10 9 9 11 9 3 1 3 6 4 3 4 3 3 1 3 4 5 1 2 2 1 1 2 3 2 3 3 1 2 2 6 9 11 10 4 1 4 6 8 7 5 8 12 13 14 13 10 8 8 7 6 4 4 9 12 3 8 12 15 20 19 16 12 9 10 10 8 8 10 13 17 19 19 19 19 22 30
5 2 6 7 8 9 6 8 12 11 9 7 6 8 8 5 3 2 2 2 3 5 3 3 3 1 4 4 3 2 2 3 3 1 1 2 1 5 5 2 1 5 8 10 7 2 3 2 6 9 9 7 9 12 9 7 11 10 10 13 12 14 11 14 23 18 5 13 15 14 21 21 16 11 9 8 7 6 8 9 11 15 17 17 19 19 17 20
5 4 7 8 7 7 7 9 11 12 10 7 5 6 8 7 4 1 2 3 4 2 1 2 4 3 3 4 2 3 4 3 4 2 1 1 1 3 5 1 3 3 8 6 3 1 3 3 8 9 10 9 8 10 7 4 7 7 10 16 20 23 21 25 31 25 16 21 20 17 20 20 15 11 10 8 5 3 4 6 9 13 15 14 15 16 15 16
10 9 11 11 8 8 6 8 7 7 8 6 2 3 6 7 5 3 1 2 3 2 1 1 4 2 2 4 2 2 5 2 2 1 1 4 0 4 4 3 2 2 4 4 5 4 2 5 8 9 12 12 9 10 6 3 5 4 11 21 22 20 23 29 31 26 22 23 21 18 18 18 13 9 8 8 5 3 1 3 6 10 13 12 12 14 14 15
16 13 12 10 9 10 6 4 5 7 9 6 4 4 6 6 4 3 2 1 1 5 2 2 4 1 3 4 2 1 2 1 2 3 3 4 3 5 5 5 2 4 2 4 8 7 3 4 4 5 10 11 9 8 3 1 1 5 13 21 18 10 15 25 28 25 22 19 16 15 15 14 9 6 6 5 3 2 2 3 5 6 8 10 11 13 16 16
19 16 11 8 8 9 6 1 5 9 9 7 6 6 7 7 4 2 3 4 5 4 4 4 3 1 2 3 2 2 3 1 2 3 5 0 3 2 2 2 3 4 4 5 5 5 3 2 3 3 7 10 7 3 5 5 3 12 18 22 17 10 15 23 23 20 18 15 13 14 14 13 8 5 4 2 3 4 4 5 7 9 10 11 11 13 17 19
15 14 12 11 9 10 7 2 5 7 7 5 5 4 5 6 4 4 4 3 5 7 4 1 2 1 1 2 4 5 6 4 3 4 4 3 2 3 3 2 4 4 4 5 5 4 4 2 3 5 6 9 8 6 8 8 1 13 21 20 15 11 12 16 19 19 15 13 14 16 14 9 6 6 5 3 3 6 7 7 8 10 10 12 13 15 17 19
Wind_Direction
350 350 350 350 346 335 319 301 281 268 263 262 264 265 265 265 263 263 263 263 263 262 261 260 260 260 258 255 252 249 247 249 251 253 257 254 254 253 249 247 246 244 239 240 239 240 229 215 262 242 340 47 337 318 328 325 335 333 324 308 295 204 178 174 171 166 166 162 155 153 150 149 143 137 134 133 139 135 131 137 143 160 164 161 164 156 150 152
351 349 347 348 351 353 348 341 325 306 285 273 268 266 266 265 265 265 264 264 264 263 263 261 261 260 259 258 255 253 250 248 248 248 253 256 257 256 252 248 245 243 238 232 221 226 215 190 196 53 31 4 297 305 322 328 329 326 315 286 264 211 184 180 178 171 167 164 156 154 155 153 148 144 141 142 145 141 139 144 150 158 162 164 165 156 149 152
351 350 347 345 347 351 353 351 343 338 329 316 300 285 277 271 268 267 266 265 264 264 263 262 262 261 260 259 257 256 254 251 248 244 248 255 258 255 253 251 246 242 237 228 219 211 206 210 208 52 24 292 291 305 322 334 330 319 305 284 259 226 198 187 183 173 165 164 159 158 161 155 151 150 147 146 142 145 153 153 158 167 169 164 165 161 150 152
354 351 350 345 343 345 345 345 342 341 338 335 330 317 306 292 281 273 269 267 265 265 263 262 262 261 260 259 259 256 255 257 251 243 241 248 254 255 253 251 245 241 237 226 222 212 211 213 169 131 275 279 294 311 325 331 329 323 301 289 266 233 207 190 181 170 164 164 164 162 163 158 155 155 149 141 139 154 166 166 168 169 167 164 166 165 153 155
358 354 353 348 340 336 332 333 332 332 329 326 323 317 314 304 297 287 278 271 268 266 264 264 261 261 260 257 257 255 256 260 256 246 239 241 247 253 252 252 247 240 236 227 221 216 220 189 142 163 233 265 284 310 322 322 328 328 309 304 277 236 199 192 180 174 170 167 165 162 162 160 158 152 142 136 148 169 175 171 172 163 161 164 165 162 156 160
358 354 352 346 337 330 322 321 319 318 316 314 313 309 308 302 297 292 287 281 274 270 267 265 262 260 259 256 255 253 251 254 257 252 241 240 242 247 248 250 250 243 237 229 215 206 216 182 139 152 209 256 278 301 317 330 333 325 330 338 309 109 133 180 177 180 178 171 162 155 156 154 153 146 137 142 161 177 181 170 168 161 158 161 163 160 158 162
358 352 348 343 336 328 321 318 314 313 311 309 308 307 306 302 298 292 288 285 280 278 274 269 266 262 258 255 251 250 247 245 252 252 247 245 241 243 245 247 250 247 239 226 208 201 211 171 128 133 197 261 276 292 309 324 329 339 0 1 23 136 155 171 172 176 175 171 163 158 154 145 148 146 138 151 169 177 181 168 161 157 158 163 163 159 158 162
355 349 344 339 332 327 322 320 318 318 316 315 313 310 308 303 299 293 289 286 283 281 278 275 272 266 262 256 251 250 246 242 247 249 248 252 254 249 243 243 247 245 236 221 198 195 202 152 119 125 219 266 279 295 309 307 312 352 16 16 50 160 165 173 177 172 165 168 170 165 150 139 149 146 137 153 168 175 177 161 156 156 158 163 163 159 160 162
352 347 340 336 332 329 327 327 327 327 326 325 321 318 316 310 304 296 290 287 286 282 280 279 277 273 267 258 251 245 244 247 252 252 246 249 257 260 248 241 241 239 230 215 193 195 191 131 106 74 257 274 289 296 302 310 331 357 39 67 79 183 166 176 181 168 163 171 171 155 137 136 144 137 138 158 168 171 171 159 155 157 157 159 162 160 159 162
347 343 339 337 336 334 334 335 335 335 334 332 328 323 321 318 313 305 295 289 287 284 282 279 279 278 272 264 251 238 244 259 262 252 241 247 249 253 254 241 238 238 229 213 191 197 184 131 128 149 306 281 285 289 303 326 12 18 45 90 119 178 168 177 176 161 161 166 159 145 137 139 138 136 147 162 169 168 164 159 156 156 154 156 163 160 159 160
343 341 341 340 340 340 340 339 337 336 334 331 329 324 320 318 316 312 306 296 289 286 283 281 281 280 277 271 253 240 244 254 264 258 237 239 244 243 248 241 234 230 228 214 189 193 177 138 143 172 264 282 283 316 354 354 41 44 55 89 124 156 165 172 167 155 158 162 156 148 144 143 140 144 155 160 165 167 162 157 155 154 153 160 165 152 149 147
340 341 342 344 344 343 341 340 338 334 330 327 324 320 316 314 312 310 309 302 294 288 284 283 281 283 282 277 258 239 235 231 258 269 243 229 238 238 240 236 229 221 220 206 181 184 171 146 153 187 235 287 297 319 5 90 100 56 60 71 119 159 168 169 169 161 159 164 163 152 146 147 144 148 160 162 163 167 161 154 154 153 156 166 159 138 144 154
341 341 342 347 346 343 342 338 335 330 326 324 320 318 314 310 308 304 303 301 297 288 283 284 284 286 285 280 265 245 237 230 245 266 259 240 234 233 233 227 224 214 209 201 172 158 167 160 167 196 213 249 287 283 295 126 139 83 77 77 100 139 185 177 174 177 168 168 170 158 150 151 147 149 162 165 161 164 158 150 154 156 161 168 151 145 161 172
342 341 344 348 345 343 340 336 333 327 323 321 318 316 312 309 305 298 295 293 294 289 285 286 286 289 291 285 278 269 252 242 250 263 269 256 236 225 219 218 220 209 201 199 171 152 182 193 186 213 208 193 267 270 254 155 152 115 97 93 99 114 171 201 182 187 183 177 174 162 156 156 149 151 163 167 161 161 156 152 158 160 166 167 155 160 174 178
341 342 347 347 345 343 338 337 332 325 324 322 321 320 317 316 310 301 292 287 294 292 290 295 297 308 306 287 285 296 271 247 256 265 259 248 239 219 207 209 211 203 196 190 179 167 175 202 219 233 211 177 244 255 181 128 143 108 101 114 115 120 132 208 198 195 194 184 179 176 164 157 151 152 163 168 163 160 156 156 161 165 171 166 161 173 178 173
344 345 348 347 345 343 340 339 333 329 332 330 340 353 355 360 354 341 310 296 315 308 318 325 331 350 343 328 315 324 320 258 257 255 243 237 220 201 200 202 201 196 190 185 187 183 178 208 225 221 204 173 221 244 186 108 170 133 135 133 133 133 134 177 192 195 202 191 185 201 177 156 154 155 163 170 164 161 159 162 167 170 174 166 166 181 179 167
347 348 349 348 346 345 344 343 340 341 346 359 36 49 45 38 29 19 3 347 29 44 39 36 37 34 19 2 339 331 358 301 256 229 209 216 177 166 202 199 198 192 186 192 200 199 196 217 227 215 205 179 196 236 219 197 227 215 180 145 147 155 158 174 183 195 205 198 192 204 181 159 159 157 163 170 165 164 165 168 174 175 175 167 173 186 174 166
350 351 350 350 349 350 352 352 354 359 16 51 70 71 61 46 36 26 16 23 92 73 54 60 57 54 44 15 8 9 16 319 242 128 168 172 128 142 251 215 188 182 184 203 207 207 210 220 234 219 209 192 182 207 221 225 227 205 188 170 156 163 178 180 183 195 202 200 199 201 187 168 163 157 165 167 163 172 173 174 180 178 176 169 178 187 164 168
352 353 352 355 355 356 2 6 13 23 46 76 79 76 62 47 37 18 18 48 51 19 18 55 86 59 30 12 13 31 10 222 239 304 170 164 140 174 237 213 172 174 181 208 203 194 206 202 219 212 200 201 191 202 229 232 221 220 203 175 152 150 166 177 184 196 200 199 199 198 188 177 168 160 168 169 165 175 177 181 186 181 179 173 181 185 161 173
354 355 357 1 1 6 16 24 36 47 57 70 66 56 37 56 43 8 16 64 12 351 344 326 135 10 359 357 310 256 292 271 258 232 193 188 169 184 213 181 169 187 181 187 185 178 198 196 215 220 196 190 198 213 231 231 216 212 191 173 159 142 145 160 174 188 199 203 200 198 186 179 176 167 171 171 167 172 177 185 187 183 184 173 183 190 165 177
357 0 4 8 10 21 32 43 56 60 57 44 31 18 0 70 63 7 339 348 6 13 337 292 247 295 302 306 272 279 292 289 246 204 195 188 172 184 196 167 175 206 183 162 178 205 205 206 214 224 203 186 198 211 222 238 217 180 176 164 161 161 151 151 161 179 197 206 204 204 193 183 183 174 171 172 170 172 180 188 184 185 189 171 186 201 172 179
2 6 12 18 23 35 46 59 66 61 54 37 25 20 357 85 65 3 319 308 359 23 349 318 305 290 253 175 205 295 264 225 233 207 187 178 168 179 195 178 181 212 195 162 187 209 205 224 223 215 215 201 201 203 214 236 213 196 202 178 164 174 156 151 166 175 189 201 204 205 197 185 185 182 176 175 175 176 183 189 182 184 189 173 189 205 178 182
7 15 22 31 37 49 57 65 65 57 49 38 30 27 14 95 49 352 289 276 288 358 357 302 298 293 238 184 227 301 274 194 234 226 199 189 174 172 185 194 186 201 216 188 194 204 206 242 248 196 204 213 219 209 205 220 213 212 214 197 184 186 168 163 175 171 175 190 198 201 199 187 184 188 186 180 181 183 186 189 183 183 184 177 194 206 187 188
15 24 34 47 53 59 65 71 69 61 52 40 32 27 24 59 44 348 288 299 289 68 24 288 297 283 277 255 257 292 263 199 226 236 245 206 171 173 178 189 202 201 214 208 203 209 215 239 264 203 195 206 220 213 210 231 227 215 218 212 191 180 178 182 171 162 163 171 183 190 198 205 195 190 193 190 186 188 190 188 186 186 179 178 199 209 197 195
22 36 47 61 63 64 69 75 72 67 64 48 31 22 20 38 37 348 328 332 265 122 199 254 299 254 264 264 255 278 205 197 204 223 262 246 166 176 185 189 217 216 213 209 211 223 229 237 235 214 193 197 210 213 214 230 231 215 216 209 181 166 185 182 163 157 160 163 173 180 188 213 208 195 195 200 194 191 191 189 189 188 178 178 197 208 203 200
32 50 62 70 65 63 61 63 63 57 73 63 35 12 4 19 20 352 347 335 312 338 174 193 349 296 251 255 243 178 193 225 238 208 258 277 172 175 201 207 213 216 215 215 218 226 234 234 215 211 217 203 200 208 204 210 238 238 170 171 172 171 179 167 158 156 160 160 164 183 187 192 203 199 197 202 199 194 194 190 190 190 182 179 194 206 204 200
46 65 79 80 59 58 47 39 50 28 84 94 83 73 351 5 12 4 4 335 302 143 151 176 347 19 335 251 207 152 177 272 171 203 245 282 186 180 198 204 212 217 205 213 226 225 228 225 219 230 234 203 198 209 202 204 231 197 135 147 106 126 152 149 154 160 159 149 141 175 189 164 186 198 198 202 203 199 198 194 192 194 188 180 189 204 203 199
67 90 91 87 55 50 42 38 59 59 97 112 102 99 57 26 22 14 6 324 331 130 166 212 247 313 318 230 194 189 300 23 182 211 244 251 200 188 195 195 222 227 201 223 239 226 226 222 219 229 214 198 211 212 200 200 202 177 170 196 113 114 142 140 148 154 152 143 140 170 185 166 179 193 193 200 206 204 201 198 194 195 193 184 185 201 204 202
99 117 107 100 68 56 57 66 77 78 103 105 63 53 36 34 28 8 340 301 356 129 241 252 273 310 291 189 200 203 243 289 248 240 265 238 197 190 204 213 239 242 214 229 237 206 186 213 216 224 207 205 215 184 185 204 201 190 185 177 157 137 137 139 147 147 147 158 170 178 183 172 166 186 188 195 209 210 204 201 198 198 198 190 186 198 206 202
136 135 126 114 87 82 81 84 88 81 88 89 43 23 14 19 7 339 295 278 47 76 0 24 347 338 162 180 207 206 230 238 216 261 257 222 205 206 217 216 223 259 239 222 231 232 210 196 201 219 205 194 194 175 190 209 201 192 169 148 136 127 132 142 149 138 137 195 206 187 187 182 156 186 191 192 204 209 207 204 201 200 202 197 188 195 205 201
160 148 142 128 110 109 99 89 91 82 68 56 37 20 15 8 346 304 296 23 78 9 9 138 80 15 182 203 212 211 246 206 198 293 231 185 210 228 236 225 221 249 244 215 228 238 234 208 182 198 194 175 182 198 206 201 201 224 180 147 132 128 137 142 148 149 149 218 255 218 191 187 188 194 198 198 194 201 208 210 206 203 203 200 191 193 202 201
168 159 153 139 129 123 114 99 82 68 51 41 29 26 24 360 314 260 271 301 43 2 19 153 101 107 176 229 229 217 209 202 217 276 222 199 217 222 226 221 212 225 236 230 230 217 218 236 224 199 198 180 183 204 232 218 222 248 205 162 144 140 152 155 162 186 173 94 22 211 184 186 222 213 204 209 206 204 207 209 209 208 204 201 197 196 199 201
177 167 160 148 142 135 128 102 68 57 43 27 13 22 19 337 301 288 287 350 21 5 21 225 2 157 209 258 241 223 183 194 226 240 219 222 221 216 221 214 210 228 253 261 240 204 198 232 232 208 205 202 197 199 221 229 224 232 203 185 176 154 157 212 182 175 129 84 99 175 175 212 263 229 216 216 216 212 205 202 205 209 207 203 204 201 197 201
184 171 164 156 148 151 154 120 68 46 30 12 3 14 352 290 306 336 3 58 14 348 354 326 351 27 245 236 205 202 172 185 259 230 221 224 215 216 218 220 232 245 245 239 249 228 202 209 210 197 195 202 204 194 189 203 223 227 210 205 210 201 215 241 162 119 112 103 109 155 174 281 279 237 232 219 214 209 203 201 202 207 208 204 205 202 194 198
187 174 167 160 154 160 171 173 143 34 26 6 358 357 321 294 313 344 13 21 332 334 23 354 349 315 256 210 201 210 196 225 220 180 213 232 232 226 204 210 239 250 237 240 269 257 229 235 220 204 198 201 208 195 193 214 252 237 204 203 221 224 238 256 197 153 140 126 131 157 171 228 225 233 238 216 205 200 197 199 201 203 203 201 202 201 196 198
189 173 166 164 163 167 172 192 216 12 356 344 355 336 302 304 313 338 356 342 330 345 348 343 11 298 262 193 199 203 208 264 217 165 182 219 246 240 223 216 202 208 255 328 321 299 316 327 222 194 195 193 203 201 204 217 227 174 185 203 226 222 228 254 218 159 154 123 146 178 183 210 203 206 217 208 196 193 190 193 197 197 199 202 202 201 199 198
183 174 170 170 172 171 175 191 193 342 310 320 337 318 303 307 312 334 340 327 331 333 316 310 31 331 316 231 181 172 221 269 252 170 165 196 240 228 248 265 175 152 26 8 327 252 288 341 112 161 180 176 173 198 212 214 205 190 198 201 210 212 221 243 244 140 159 123 147 184 192 204 202 190 198 199 195 197 190 187 191 192 197 203 204 204 201 197
147 149 170 184 182 173 177 185 180 297 305 320 325 321 322 322 319 340 338 324 318 324 333 2 352 327 331 338 327 259 226 212 182 177 151 146 219 208 287 307 192 65 10 325 299 247 314 324 120 151 180 174 161 167 209 221 222 226 231 226 216 211 219 232 231 157 150 142 152 184 186 207 215 203 197 195 198 206 197 187 191 193 196 201 203 205 199 193
115 108 138 183 168 160 183 186 242 288 291 303 298 301 320 327 326 345 337 328 314 305 336 359 344 329 323 317 313 229 159 117 172 187 163 126 173 200 253 215 208 350 357 309 291 309 335 328 314 175 192 165 155 160 201 223 229 232 238 253 260 238 227 231 218 195 161 138 152 174 191 220 219 208 208 206 206 211 203 192 194 197 200 203 203 203 199 193
111 94 94 114 137 170 276 272 244 260 269 296 294 295 311 314 316 356 349 338 318 315 335 346 337 341 343 325 328 284 154 318 312 179 158 133 129 194 225 173 225 330 354 333 300 283 296 309 308 302 197 160 161 177 211 217 227 238 240 247 254 246 249 252 221 210 200 178 145 151 197 227 207 202 219 220 216 216 212 206 203 202 205 207 205 203 200 194
108 87 79 92 173 230 306 263 218 261 290 287 285 296 317 302 283 334 358 330 298 320 359 356 328 339 355 319 328 346 121 186 249 119 134 151 135 152 218 151 358 3 351 335 351 322 295 315 323 297 213 222 222 208 218 214 221 232 230 234 242 243 251 263 222 216 213 208 177 154 152 204 195 199 210 213 218 216 215 219 214 206 207 209 209 205 201 198
112 91 84 121 235 259 320 279 259 286 284 275 268 285 320 316 289 311 329 313 301 293 13 352 328 343 330 311 326 4 18 43 153 96 92 136 97 66 89 29 19 16 332 320 338 329 302 328 328 304 309 320 317 249 232 220 223 227 220 224 234 246 260 260 224 229 238 262 240 156 123 141 180 193 196 197 208 214 218 225 220 213 212 212 213 210 205 202
123 102 100 198 237 258 271 266 272 273 274 283 282 276 287 298 304 324 323 332 10 52 338 347 345 339 316 327 11 350 341 25 109 114 112 123 69 52 57 54 32 349 331 335 333 295 288 359 345 322 313 300 286 292 224 197 227 241 229 219 224 239 254 249 265 290 308 340 8 91 108 163 179 188 192 185 188 198 212 221 219 220 225 223 219 213 209 205
136 129 138 178 229 258 260 252 265 280 287 303 295 272 262 261 279 301 311 339 27 11 345 355 5 26 346 334 356 354 6 69 101 103 114 120 78 36 14 57 39 342 340 351 348 332 7 13 356 337 330 314 320 357 27 47 323 255 259 244 227 232 237 236 262 284 300 323 340 73 111 175 178 177 181 180 184 195 205 213 216 223 230 230 225 216 210 206
132 143 140 164 223 256 268 238 248 279 288 291 290 288 283 258 253 278 287 299 331 343 353 344 326 51 347 305 331 359 2 161 116 103 130 141 69 28 304 82 37 355 350 347 337 329 352 5 352 345 2 349 320 341 346 349 359 349 312 293 253 251 250 240 260 278 293 332 40 126 131 156 170 168 168 179 192 200 208 214 219 228 234 235 233 226 216 208
124 134 79 245 230 253 296 240 237 261 264 260 276 288 280 235 130 320 302 298 269 274 322 324 304 43 344 294 286 31 319 223 117 111 174 196 60 60 231 212 357 353 5 7 350 327 4 17 351 334 331 318 308 317 323 327 338 356 347 313 319 353 339 294 318 312 291 90 96 128 140 144 156 162 163 178 195 208 222 225 228 236 239 240 240 240 236 221
145 130 356 328 243 237 268 257 250 255 257 251 257 269 272 284 331 297 278 332 299 278 291 289 274 320 330 298 228 256 340 77 101 122 233 307 43 74 67 93 257 328 2 18 8 17 92 28 342 335 323 317 316 312 313 320 322 338 348 338 4 38 50 52 39 27 77 105 90 119 135 131 136 149 150 155 180 219 241 242 242 247 250 249 246 243 244 232
195 287 303 296 271 231 238 278 266 253 275 289 260 251 262 282 308 245 229 314 308 270 211 298 304 273 302 327 253 270 323 49 83 93 83 349 213 116 50 62 201 319 350 359 342 115 105 337 325 333 329 321 309 299 293 293 303 330 14 24 45 58 58 63 58 51 81 105 103 122 131 127 132 147 149 144 147 191 237 246 252 259 263 259 248 241 237 227
217 256 245 243 255 216 221 303 288 254 296 309 197 218 258 268 279 265 273 352 357 2 154 312 346 354 353 354 356 341 345 19 60 14 68 40 1 220 290 301 180 77 3 3 7 4 15 348 326 316 323 321 310 315 313 242 264 319 36 43 52 56 53 64 70 70 84 101 110 123 126 124 130 142 148 148 141 139 209 283 275 267 267 263 252 242 238 229
215 233 232 230 235 206 197 308 274 255 296 294 241 256 273 282 282 253 264 271 19 16 27 308 320 348 71 32 46 84 42 218 255 235 172 49 358 250 275 312 29 63 3 341 11 10 357 15 8 317 318 319 313 326 337 203 89 70 59 46 44 45 45 56 69 78 83 88 101 116 112 104 112 131 144 149 159 168 184 260 263 252 254 267 271 255 242 234
220 235 243 237 228 202 183 271 261 258 284 291 275 267 256 268 277 243 262 245 235 289 340 4 6 98 110 52 66 112 119 144 264 221 190 86 343 278 276 316 11 27 347 317 344 5 4 15 22 337 307 306 308 292 249 245 82 68 51 42 46 54 51 56 66 77 85 89 98 101 86 74 82 106 122 151 249 255 244 231 228 229 235 251 261 249 239 235
227 243 246 239 233 207 194 284 294 265 269 263 255 267 254 252 262 253 256 249 237 249 261 310 6 33 171 133 110 128 143 135 137 168 189 234 257 250 250 294 320 308 325 323 292 320 4 325 333 349 304 293 307 295 271 261 65 48 40 47 62 64 55 57 59 63 73 86 88 81 71 67 91 112 124 159 237 266 271 267 252 243 247 256 257 244 233 230
Height
3140 3140 3140 3140 3140 3139 3139 3139 3139 3139 3139 3139 3139 3140 3140 3140 3140 3140 3140 3141 3141 3141 3142 3142 3143 3143 3144 3144 3145 3146 3147 3147 3148 3149 3149 3150 3151 3152 3154 3154 3155 3157 3158 3159 3161 3162 3162 3163 3164 3164 3163 3162 3162 3164 3165 3165 3165 3164 3164 3164 3163 3163 3163 3164 3165 3166 3167 3168 3169 3171 3173 3175 3177 3178 3180 3182 3184 3185 3186 3187 3188 3189 3190 3190 3190 3191 3193 3194
3141 3140 3140 3140 3139 3139 3139 3139 3139 3139 3139 3139 3139 3139 3139 3139 3139 3139 3139 3139 3140 3140 3140 3141 3141 3142 3142 3143 3144 3145 3145 3146 3147 3148 3148 3149 3150 3151 3152 3154 3155 3156 3157 3158 3160 3161 3162 3163 3163 3163 3162 3163 3164 3165 3166 3165 3165 3164 3164 3164 3163 3163 3163 3164 3165 3166 3167 3168 3169 3171 3173 3176 3177 3178 3180 3182 3184 3185 3186 3187 3188 3188 3189 3190 3190 3192 3194 3195
3141 3141 3140 3140 3139 3139 3139 3139 3138 3138 3138 3138 3138 3138 3138 3138 3138 3138 3138 3138 3138 3139 3139 3139 3140 3141 3141 3142 3143 3144 3144 3145 3145 3147 3147 3148 3149 3151 3152 3153 3154 3155 3156 3157 3159 3160 3161 3161 3162 3163 3164 3165 3166 3166 3166 3165 3164 3164 3164 3163 3163 3163 3162 3162 3164 3166 3165 3168 3169 3170 3173 3176 3178 3179 3180 3182 3184 3185 3185 3185 3186 3186 3188 3190 3190 3192 3195 3196
3141 3141 3140 3140 3140 3139 3139 3139 3138 3138 3138 3138 3138 3138 3138 3137 3137 3137 3137 3137 3137 3137 3138 3138 3139 3139 3140 3141 3141 3142 3143 3143 3144 3145 3146 3147 3148 3149 3151 3152 3153 3154 3155 3157 3158 3159 3160 3160 3161 3164 3166 3165 3165 3166 3165 3165 3164 3163 3163 3163 3162 3161 3161 3162 3164 3166 3165 3167 3169 3170 3173 3175 3177 3179 3180 3182 3184 3185 3186 3185 3184 3186 3187 3189 3190 3192 3195 3197
3141 3141 3141 3140 3140 3139 3139 3139 3138 3138 3138 3137 3137 3137 3137 3137 3136 3136 3136 3136 3136 3136 3136 3137 3137 3138 3138 3139 3140 3141 3142 3142 3142 3143 3145 3146 3147 3148 3150 3151 3152 3153 3155 3156 3157 3159 3160 3160 3160 3164 3166 3165 3165 3166 3165 3165 3164 3164 3163 3162 3163 3163 3164 3165 3167 3168 3166 3164 3166 3169 3172 3175 3178 3179 3181 3182 3184 3184 3185 3186 3186 3188 3188 3190 3191 3192 3195 3197
3141 3141 3141 3140 3140 3139 3139 3139 3138 3138 3137 3137 3137 3136 3136 3136 3136 3136 3135 3135 3135 3135 3135 3135 3136 3136 3137 3138 3139 3139 3140 3140 3140 3142 3144 3145 3146 3148 3149 3150 3151 3152 3154 3155 3157 3159 3160 3160 3160 3163 3165 3166 3166 3166 3166 3165 3165 3164 3163 3163 3164 3166 3167 3167 3168 3169 3168 3166 3167 3170 3171 3174 3178 3179 3181 3183 3184 3184 3185 3187 3188 3189 3190 3191 3192 3193 3195 3197
3141 3141 3140 3140 3140 3139 3139 3138 3138 3137 3137 3136 3136 3136 3135 3135 3135 3135 3134 3134 3134 3134 3134 3134 3134 3135 3135 3136 3137 3138 3139 3139 3138 3141 3144 3145 3146 3147 3148 3149 3151 3152 3153 3155 3156 3158 3159 3159 3161 3163 3165 3166 3166 3167 3166 3165 3165 3164 3165 3165 3166 3167 3167 3167 3169 3169 3170 3171 3172 3174 3172 3173 3178 3179 3181 3183 3184 3185 3186 3187 3189 3190 3192 3193 3194 3195 3196 3198
3141 3141 3140 3140 3139 3139 3138 3138 3137 3137 3136 3136 3135 3135 3135 3134 3134 3134 3133 3133 3133 3133 3133 3133 3133 3133 3134 3135 3136 3137 3137 3136 3136 3140 3143 3144 3145 3146 3147 3148 3150 3151 3153 3155 3156 3158 3159 3159 3161 3163 3166 3166 3166 3166 3166 3165 3165 3165 3167 3166 3166 3167 3167 3167 3168 3169 3171 3172 3173 3176 3174 3174 3179 3180 3181 3183 3184 3185 3186 3187 3189 3191 3192 3194 3195 3196 3197 3199
3141 3140 3140 3139 3139 3138 3137 3137 3136 3136 3136 3135 3135 3134 3134 3133 3133 3133 3132 3132 3132 3133 3132 3132 3132 3132 3133 3133 3135 3136 3134 3135 3136 3140 3143 3144 3145 3145 3147 3148 3149 3151 3152 3154 3155 3157 3158 3159 3162 3165 3167 3167 3166 3166 3166 3165 3165 3165 3166 3165 3166 3167 3167 3167 3168 3170 3172 3173 3175 3176 3175 3175 3179 3181 3182 3184 3184 3185 3186 3188 3190 3191 3193 3194 3195 3197 3198 3199
3141 3140 3139 3139 3138 3138 3137 3136 3136 3135 3135 3135 3134 3133 3133 3133 3132 3132 3131 3131 3131 3132 3132 3132 3132 3132 3132 3132 3134 3134 3134 3135 3135 3137 3142 3143 3144 3145 3146 3147 3148 3150 3151 3153 3154 3156 3157 3158 3162 3166 3168 3167 3166 3166 3165 3165 3165 3165 3164 3164 3165 3166 3167 3168 3169 3172 3173 3173 3175 3176 3176 3177 3180 3182 3183 3184 3185 3185 3186 3188 3190 3192 3193 3195 3196 3198 3199 3200
3141 3140 3139 3138 3138 3137 3137 3136 3135 3135 3134 3134 3134 3133 3132 3132 3131 3131 3131 3131 3130 3131 3131 3131 3131 3131 3131 3132 3133 3134 3136 3135 3131 3134 3140 3141 3142 3144 3145 3146 3147 3149 3151 3152 3154 3156 3157 3158 3161 3165 3168 3167 3165 3166 3165 3165 3165 3165 3164 3164 3165 3166 3167 3168 3170 3172 3172 3173 3174 3175 3176 3178 3180 3182 3183 3184 3185 3186 3186 3188 3190 3192 3194 3196 3197 3198 3200 3201
3140 3140 3139 3138 3138 3137 3136 3136 3135 3134 3134 3133 3133 3132 3131 3131 3131 3130 3130 3130 3129 3130 3130 3130 3130 3130 3131 3131 3132 3134 3135 3134 3132 3132 3138 3140 3141 3142 3144 3145 3147 3148 3150 3151 3153 3156 3156 3157 3160 3163 3167 3167 3165 3166 3166 3165 3165 3165 3165 3166 3166 3167 3168 3169 3170 3171 3172 3173 3175 3175 3177 3179 3180 3183 3184 3185 3186 3187 3188 3189 3191 3193 3195 3196 3198 3199 3201 3202
3140 3139 3139 3138 3137 3137 3136 3136 3135 3134 3133 3132 3131 3131 3130 3130 3130 3129 3129 3129 3129 3129 3129 3129 3129 3129 3130 3130 3131 3132 3133 3134 3133 3132 3136 3139 3139 3141 3143 3144 3146 3147 3149 3151 3152 3155 3157 3158 3159 3161 3165 3167 3165 3165 3166 3165 3165 3165 3166 3165 3166 3168 3169 3169 3170 3171 3172 3172 3174 3176 3178 3180 3181 3183 3185 3185 3186 3187 3188 3190 3192 3194 3196 3197 3199 3200 3202 3203
3140 3139 3139 3138 3137 3137 3136 3135 3134 3133 3132 3131 3130 3130 3129 3129 3128 3128 3128 3128 3128 3128 3128 3128 3129 3129 3129 3129 3130 3131 3132 3133 3132 3133 3136 3138 3138 3140 3141 3143 3145 3146 3148 3150 3151 3153 3156 3158 3159 3160 3161 3165 3164 3164 3165 3165 3165 3166 3166 3165 3165 3168 3170 3170 3170 3171 3172 3173 3174 3176 3177 3179 3181 3183 3185 3186 3187 3188 3189 3191 3193 3195 3196 3198 3199 3201 3202 3203
3140 3139 3138 3138 3137 3136 3135 3134 3133 3132 3131 3130 3130 3129 3128 3128 3127 3127 3127 3127 3127 3128 3128 3128 3128 3128 3129 3129 3129 3130 3130 3131 3131 3132 3135 3136 3137 3139 3140 3142 3144 3145 3147 3149 3150 3151 3155 3157 3158 3158 3160 3163 3164 3162 3164 3166 3166 3166 3166 3166 3166 3167 3169 3170 3170 3171 3172 3174 3177 3177 3177 3179 3181 3183 3185 3187 3188 3189 3191 3192 3194 3196 3197 3198 3200 3201 3202 3203
3140 3139 3138 3137 3136 3135 3134 3133 3132 3131 3130 3129 3129 3128 3128 3127 3127 3127 3127 3127 3127 3127 3128 3128 3128 3128 3129 3129 3129 3129 3129 3130 3130 3131 3134 3135 3137 3138 3139 3141 3142 3145 3147 3148 3150 3151 3153 3154 3155 3157 3159 3161 3163 3162 3163 3166 3167 3166 3166 3165 3165 3165 3167 3169 3170 3172 3172 3175 3178 3179 3178 3178 3181 3183 3185 3187 3189 3190 3192 3193 3195 3196 3197 3198 3200 3200 3201 3203
3140 3139 3138 3137 3136 3135 3133 3132 3131 3130 3129 3129 3128 3128 3128 3128 3127 3127 3127 3127 3127 3128 3128 3128 3128 3128 3129 3130 3129 3129 3129 3129 3129 3131 3133 3135 3136 3137 3139 3140 3141 3144 3146 3147 3149 3150 3152 3153 3154 3156 3158 3159 3161 3162 3163 3165 3166 3165 3165 3165 3165 3165 3166 3167 3169 3171 3173 3175 3177 3179 3180 3179 3180 3183 3186 3187 3190 3191 3192 3194 3195 3196 3197 3199 3200 3200 3202 3203
3139 3139 3138 3137 3135 3134 3133 3132 3131 3130 3129 3129 3129 3128 3128 3128 3128 3128 3128 3128 3128 3128 3128 3128 3128 3129 3129 3130 3130 3129 3129 3129 3130 3131 3133 3134 3136 3138 3139 3140 3141 3143 3145 3146 3148 3150 3151 3153 3154 3156 3157 3159 3160 3161 3161 3163 3165 3165 3165 3164 3164 3165 3166 3167 3168 3170 3172 3174 3176 3178 3180 3180 3180 3183 3186 3188 3190 3192 3193 3194 3195 3196 3198 3199 3200 3200 3202 3203
3139 3138 3137 3136 3135 3134 3133 3131 3131 3130 3129 3129 3129 3129 3128 3128 3127 3128 3128 3129 3129 3129 3129 3129 3129 3130 3130 3131 3130 3130 3130 3130 3131 3132 3133 3134 3136 3138 3139 3139 3141 3143 3144 3146 3147 3149 3150 3152 3153 3154 3155 3157 3159 3160 3160 3162 3164 3164 3165 3164 3163 3164 3166 3167 3168 3170 3171 3173 3175 3177 3179 3181 3181 3182 3185 3188 3190 3193 3194 3195 3196 3197 3198 3199 3200 3201 3202 3203
3139 3138 3137 3136 3135 3134 3133 3132 3131 3130 3130 3130 3130 3130 3129 3127 3127 3129 3129 3129 3130 3129 3129 3129 3129 3129 3130 3131 3132 3131 3131 3131 3132 3133 3133 3134 3135 3137 3138 3139 3141 3142 3143 3145 3147 3148 3150 3151 3152 3152 3154 3155 3157 3160 3160 3162 3163 3163 3163 3164 3164 3164 3165 3166 3168 3169 3171 3173 3175 3176 3177 3180 3182 3181 3182 3185 3189 3192 3195 3195 3196 3197 3198 3200 3200 3201 3203 3204
3139 3138 3137 3136 3135 3134 3133 3132 3131 3131 3131 3131 3130 3130 3129 3128 3128 3130 3130 3129 3129 3129 3130 3130 3128 3129 3130 3131 3132 3132 3132 3132 3132 3133 3133 3134 3135 3136 3138 3139 3141 3142 3142 3144 3146 3148 3149 3150 3150 3151 3153 3154 3156 3159 3160 3161 3162 3162 3162 3163 3164 3164 3164 3165 3167 3168 3170 3173 3174 3176 3178 3180 3182 3183 3183 3185 3187 3190 3193 3194 3196 3198 3199 3200 3201 3201 3203 3204
3139 3138 3137 3136 3136 3134 3134 3133 3132 3132 3132 3132 3131 3130 3130 3129 3128 3130 3131 3129 3128 3128 3129 3129 3129 3129 3130 3130 3132 3131 3131 3131 3132 3132 3133 3134 3135 3136 3138 3139 3140 3142 3143 3143 3145 3148 3148 3149 3149 3151 3153 3154 3155 3158 3160 3160 3161 3161 3162 3162 3163 3163 3164 3165 3167 3168 3169 3171 3173 3176 3179 3180 3182 3183 3184 3186 3187 3188 3190 3192 3194 3197 3199 3200 3201 3201 3203 3203
3139 3138 3138 3137 3136 3135 3134 3134 3133 3133 3132 3132 3131 3131 3131 3130 3129 3131 3131 3129 3128 3127 3127 3128 3129 3130 3130 3130 3131 3131 3131 3131 3132 3132 3133 3134 3135 3136 3138 3139 3140 3141 3143 3143 3144 3146 3147 3147 3147 3149 3152 3153 3154 3157 3158 3159 3160 3160 3160 3160 3160 3161 3162 3164 3165 3167 3168 3170 3172 3174 3177 3180 3182 3183 3184 3186 3187 3188 3190 3191 3193 3195 3198 3200 3200 3201 3202 3203
3139 3138 3138 3137 3137 3136 3135 3134 3134 3133 3133 3133 3132 3132 3133 3131 3129 3131 3131 3129 3127 3126 3127 3130 3130 3129 3130 3131 3131 3131 3131 3131 3132 3133 3133 3134 3135 3136 3137 3139 3141 3141 3142 3144 3144 3145 3145 3145 3146 3148 3150 3151 3153 3155 3157 3157 3158 3158 3157 3157 3158 3159 3161 3163 3164 3165 3167 3169 3171 3173 3176 3179 3180 3182 3184 3185 3186 3187 3189 3191 3192 3194 3197 3199 3200 3201 3202 3202
3139 3139 3138 3138 3137 3137 3136 3135 3135 3134 3133 3133 3134 3133 3133 3132 3131 3132 3132 3131 3129 3128 3129 3130 3130 3130 3130 3131 3131 3131 3131 3131 3132 3133 3133 3134 3135 3136 3138 3139 3140 3141 3142 3143 3144 3145 3144 3144 3146 3148 3148 3149 3151 3154 3155 3155 3156 3157 3158 3158 3159 3160 3161 3162 3163 3164 3166 3168 3170 3171 3175 3177 3178 3180 3182 3184 3185 3187 3188 3190 3192 3193 3195 3198 3199 3200 3201 3202
3139 3139 3138 3138 3138 3137 3137 3136 3135 3134 3132 3132 3133 3134 3134 3133 3133 3133 3132 3131 3130 3129 3130 3130 3131 3130 3131 3131 3131 3131 3132 3131 3131 3133 3133 3134 3134 3135 3137 3139 3139 3140 3141 3142 3144 3144 3144 3144 3145 3147 3148 3148 3150 3152 3154 3154 3154 3155 3157 3159 3160 3160 3161 3162 3162 3163 3165 3166 3168 3170 3172 3175 3177 3178 3181 3183 3184 3185 3187 3188 3190 3192 3194 3196 3198 3199 3200 3201
3139 3139 3138 3138 3138 3137 3137 3137 3136 3134 3133 3132 3133 3134 3135 3135 3135 3135 3133 3132 3131 3130 3130 3131 3131 3131 3131 3131 3131 3132 3132 3131 3131 3133 3134 3134 3134 3135 3135 3137 3139 3140 3140 3141 3142 3142 3143 3143 3143 3145 3147 3147 3149 3151 3152 3153 3154 3154 3155 3157 3159 3159 3160 3161 3162 3164 3165 3165 3167 3169 3171 3173 3175 3177 3180 3182 3182 3183 3185 3186 3188 3191 3192 3194 3196 3198 3199 3200
3139 3139 3138 3138 3138 3138 3137 3137 3136 3135 3135 3135 3134 3134 3135 3136 3136 3135 3134 3134 3131 3130 3131 3131 3130 3131 3131 3131 3131 3132 3132 3132 3132 3133 3135 3135 3135 3135 3135 3136 3138 3139 3140 3140 3140 3141 3142 3142 3143 3144 3145 3146 3147 3149 3151 3152 3153 3154 3154 3156 3158 3159 3160 3161 3162 3163 3164 3165 3166 3168 3170 3172 3174 3175 3178 3180 3181 3181 3182 3184 3186 3188 3191 3193 3194 3196 3198 3199
3139 3139 3138 3139 3138 3138 3138 3137 3136 3136 3136 3136 3137 3136 3135 3136 3135 3135 3136 3135 3131 3130 3131 3131 3130 3131 3131 3132 3132 3132 3133 3133 3133 3133 3134 3135 3135 3135 3135 3136 3137 3137 3139 3140 3139 3139 3140 3141 3142 3143 3144 3146 3146 3147 3150 3150 3152 3155 3154 3155 3157 3158 3159 3161 3161 3162 3164 3165 3165 3166 3167 3170 3172 3174 3176 3178 3178 3178 3180 3182 3185 3187 3189 3191 3193 3195 3196 3197
3139 3138 3138 3139 3139 3139 3138 3138 3138 3137 3137 3137 3137 3137 3136 3136 3135 3135 3137 3134 3131 3131 3131 3131 3131 3131 3131 3132 3133 3133 3133 3133 3134 3134 3134 3135 3135 3135 3135 3136 3137 3136 3137 3138 3138 3138 3140 3141 3141 3142 3142 3144 3145 3146 3148 3149 3151 3154 3155 3155 3157 3160 3161 3162 3162 3162 3163 3164 3164 3164 3165 3167 3170 3171 3172 3173 3174 3175 3178 3180 3182 3185 3187 3189 3190 3193 3194 3195
3138 3138 3138 3139 3139 3139 3139 3139 3139 3138 3139 3138 3137 3137 3136 3135 3135 3136 3135 3132 3130 3131 3131 3131 3131 3131 3132 3132 3132 3133 3133 3134 3134 3134 3134 3134 3135 3136 3136 3136 3137 3136 3136 3137 3136 3137 3139 3141 3141 3140 3140 3141 3143 3145 3147 3148 3149 3152 3154 3154 3156 3161 3163 3163 3163 3163 3163 3164 3163 3163 3165 3167 3168 3169 3169 3170 3171 3174 3176 3177 3179 3181 3184 3186 3188 3190 3192 3194
3137 3138 3138 3138 3139 3140 3139 3140 3140 3139 3139 3139 3138 3137 3136 3135 3135 3134 3131 3129 3130 3131 3131 3131 3131 3131 3131 3131 3131 3132 3132 3133 3134 3134 3134 3134 3134 3135 3136 3135 3136 3136 3136 3136 3135 3136 3138 3139 3139 3140 3141 3142 3144 3145 3146 3147 3148 3149 3152 3151 3153 3159 3163 3164 3163 3162 3162 3163 3163 3163 3166 3168 3167 3167 3167 3169 3170 3172 3173 3175 3177 3179 3182 3184 3186 3188 3190 3192
3137 3137 3138 3138 3139 3140 3140 3140 3140 3140 3140 3140 3139 3137 3136 3137 3135 3131 3130 3130 3131 3131 3131 3131 3131 3131 3132 3131 3131 3132 3132 3132 3133 3133 3134 3134 3134 3135 3135 3135 3135 3136 3136 3135 3134 3136 3137 3138 3139 3140 3142 3145 3147 3147 3146 3146 3147 3148 3149 3150 3151 3155 3160 3161 3160 3160 3161 3163 3163 3164 3167 3169 3167 3166 3167 3167 3169 3170 3171 3173 3175 3178 3180 3182 3184 3187 3189 3191
3136 3137 3137 3138 3139 3140 3140 3140 3140 3140 3140 3140 3139 3137 3136 3137 3134 3131 3131 3132 3132 3131 3131 3131 3131 3131 3131 3131 3131 3131 3132 3132 3132 3133 3134 3134 3134 3134 3134 3135 3134 3135 3136 3135 3134 3135 3136 3136 3137 3138 3140 3142 3144 3146 3145 3146 3147 3147 3148 3149 3150 3152 3155 3157 3156 3157 3161 3162 3163 3165 3166 3167 3167 3165 3165 3165 3166 3168 3169 3171 3173 3175 3178 3181 3183 3185 3187 3190
3135 3136 3137 3138 3139 3140 3140 3140 3140 3140 3140 3140 3139 3137 3137 3137 3135 3133 3133 3133 3133 3132 3131 3131 3132 3131 3130 3130 3131 3131 3131 3132 3132 3132 3133 3134 3133 3133 3134 3134 3134 3134 3135 3135 3134 3134 3134 3134 3134 3135 3136 3139 3142 3144 3144 3145 3146 3146 3147 3149 3149 3150 3153 3153 3153 3154 3157 3159 3163 3165 3164 3164 3165 3164 3163 3163 3164 3165 3167 3168 3170 3173 3176 3178 3181 3183 3185 3188
3135 3136 3137 3138 3138 3139 3140 3140 3140 3140 3140 3140 3139 3138 3138 3137 3136 3136 3135 3134 3133 3132 3132 3132 3131 3130 3130 3130 3130 3130 3130 3131 3132 3132 3133 3133 3133 3133 3133 3134 3134 3134 3135 3135 3135 3134 3132 3131 3131 3133 3135 3138 3141 3142 3142 3144 3145 3145 3146 3148 3149 3150 3152 3152 3152 3152 3153 3157 3162 3163 3162 3163 3163 3163 3162 3162 3163 3163 3165 3166 3168 3170 3173 3175 3177 3180 3183 3185
3134 3135 3136 3137 3138 3139 3140 3140 3141 3141 3141 3140 3139 3138 3137 3137 3137 3137 3136 3135 3134 3133 3132 3131 3131 3130 3130 3129 3130 3131 3131 3130 3131 3132 3132 3133 3133 3132 3133 3134 3134 3134 3135 3135 3135 3135 3134 3132 3132 3134 3135 3136 3139 3142 3142 3143 3144 3144 3146 3147 3148 3150 3150 3151 3152 3153 3153 3156 3160 3160 3160 3162 3162 3161 3161 3162 3162 3162 3163 3165 3166 3169 3171 3172 3175 3177 3180 3183
3134 3135 3136 3137 3137 3138 3139 3140 3141 3141 3141 3140 3139 3138 3136 3136 3137 3137 3136 3135 3134 3134 3132 3131 3131 3131 3130 3130 3130 3130 3130 3130 3131 3132 3132 3133 3133 3133 3134 3134 3134 3135 3135 3135 3136 3135 3135 3135 3134 3135 3136 3135 3138 3141 3142 3142 3142 3143 3144 3146 3147 3149 3149 3149 3151 3152 3153 3155 3159 3160 3159 3160 3160 3159 3159 3160 3160 3160 3162 3163 3165 3166 3168 3169 3172 3175 3178 3181
3134 3135 3136 3137 3137 3138 3139 3140 3140 3141 3141 3140 3140 3139 3136 3135 3136 3137 3137 3136 3135 3134 3133 3132 3132 3131 3131 3131 3130 3130 3130 3131 3131 3131 3133 3134 3133 3134 3135 3135 3135 3136 3136 3135 3136 3135 3135 3135 3134 3134 3135 3136 3137 3139 3141 3141 3141 3142 3143 3145 3146 3148 3148 3147 3148 3149 3149 3151 3156 3161 3161 3158 3156 3156 3157 3158 3159 3159 3160 3161 3163 3165 3166 3168 3170 3173 3176 3179
3134 3135 3136 3136 3137 3139 3140 3141 3141 3141 3141 3140 3139 3139 3137 3136 3137 3137 3136 3136 3135 3134 3133 3133 3133 3132 3131 3131 3130 3130 3130 3131 3131 3131 3132 3134 3134 3135 3136 3136 3136 3136 3136 3136 3137 3136 3136 3136 3135 3134 3135 3137 3137 3138 3140 3141 3141 3141 3142 3144 3144 3145 3146 3146 3145 3145 3145 3146 3149 3157 3159 3156 3153 3155 3156 3157 3159 3160 3161 3162 3163 3164 3166 3167 3169 3172 3174 3177
3134 3135 3135 3136 3137 3140 3140 3140 3141 3141 3140 3139 3139 3139 3137 3137 3137 3136 3136 3136 3135 3135 3134 3134 3133 3132 3132 3132 3131 3131 3131 3131 3132 3132 3132 3134 3135 3136 3136 3136 3136 3136 3136 3137 3137 3137 3136 3137 3137 3135 3134 3136 3137 3138 3139 3140 3141 3141 3142 3143 3143 3143 3144 3144 3144 3143 3143 3144 3144 3148 3153 3154 3153 3155 3156 3157 3159 3161 3161 3162 3163 3164 3165 3167 3169 3171 3173 3175
3135 3135 3137 3138 3138 3139 3140 3140 3140 3140 3139 3138 3139 3139 3138 3137 3137 3136 3137 3136 3134 3135 3135 3135 3134 3133 3133 3133 3132 3132 3132 3132 3132 3132 3133 3135 3135 3135 3136 3136 3137 3137 3137 3137 3137 3137 3137 3137 3137 3135 3134 3135 3136 3137 3138 3138 3139 3140 3142 3143 3142 3142 3143 3143 3143 3143 3142 3142 3142 3143 3148 3152 3152 3153 3155 3157 3159 3160 3162 3163 3163 3164 3165 3166 3168 3170 3172 3174
3134 3134 3137 3140 3139 3139 3140 3140 3139 3139 3139 3138 3138 3139 3138 3138 3137 3137 3136 3135 3134 3135 3135 3135 3134 3134 3134 3133 3132 3132 3132 3132 3132 3133 3134 3136 3136 3136 3137 3137 3138 3137 3137 3136 3136 3137 3137 3137 3136 3135 3134 3134 3134 3135 3136 3138 3139 3139 3141 3143 3143 3142 3143 3141 3141 3142 3142 3142 3142 3144 3149 3152 3152 3153 3155 3156 3157 3159 3160 3162 3162 3163 3164 3166 3167 3169 3170 3173
3133 3133 3135 3139 3139 3139 3139 3139 3138 3139 3139 3138 3137 3137 3137 3137 3137 3137 3136 3136 3136 3135 3135 3135 3135 3134 3134 3134 3133 3133 3133 3133 3134 3134 3135 3136 3137 3138 3138 3138 3138 3138 3137 3136 3136 3136 3137 3137 3137 3136 3136 3136 3135 3134 3135 3136 3137 3139 3140 3142 3142 3142 3142 3141 3141 3141 3141 3141 3142 3145 3149 3152 3152 3154 3156 3157 3157 3158 3159 3160 3161 3162 3163 3164 3165 3167 3168 3171
3134 3134 3135 3137 3138 3138 3138 3138 3138 3139 3139 3139 3137 3136 3136 3136 3136 3137 3137 3136 3137 3137 3136 3136 3136 3135 3135 3135 3134 3134 3134 3134 3135 3135 3136 3137 3138 3138 3138 3138 3138 3138 3138 3137 3137 3137 3138 3138 3138 3139 3140 3142 3141 3139 3139 3137 3137 3138 3139 3139 3141 3142 3141 3140 3140 3140 3140 3140 3141 3143 3147 3151 3152 3154 3156 3158 3159 3159 3159 3160 3162 3162 3162 3163 3164 3165 3165 3166
3134 3134 3135 3136 3137 3137 3137 3137 3137 3137 3137 3137 3137 3136 3136 3136 3135 3136 3137 3136 3137 3137 3136 3137 3136 3136 3136 3135 3135 3136 3135 3135 3136 3136 3137 3138 3138 3138 3138 3138 3139 3139 3139 3139 3137 3137 3139 3139 3139 3140 3141 3143 3143 3142 3141 3140 3139 3140 3139 3139 3141 3141 3137 3136 3139 3139 3139 3140 3142 3144 3146 3150 3153 3155 3157 3158 3159 3160 3160 3161 3162 3162 3162 3163 3164 3165 3166 3167
3134 3134 3135 3136 3136 3136 3137 3137 3137 3136 3136 3136 3136 3136 3136 3136 3136 3136 3136 3137 3137 3137 3137 3137 3136 3136 3136 3135 3135 3136 3136 3136 3136 3136 3137 3138 3138 3138 3138 3139 3140 3140 3140 3139 3138 3138 3139 3140 3140 3140 3140 3141 3142 3142 3141 3141 3141 3141 3141 3141 3141 3139 3137 3138 3142 3142 3139 3140 3146 3150 3149 3150 3154 3156 3157 3159 3159 3160 3160 3161 3162 3162 3162 3163 3164 3165 3166 3169
3133 3133 3134 3134 3134 3134 3135 3135 3135 3136 3136 3136 3135 3135 3136 3136 3136 3136 3136 3136 3136 3136 3136 3137 3136 3136 3136 3136 3136 3136 3136 3136 3136 3136 3137 3138 3138 3138 3138 3139 3140 3140 3140 3140 3139 3139 3140 3140 3140 3139 3139 3140 3141 3142 3142 3142 3142 3144 3144 3142 3140 3140 3141 3142 3143 3142 3140 3142 3148 3151 3150 3151 3154 3156 3157 3159 3159 3159 3159 3161 3161 3161 3161 3162 3163 3164 3165 3167
3130 3130 3130 3131 3131 3132 3132 3133 3134 3135 3135 3134 3134 3135 3136 3136 3136 3136 3136 3136 3136 3136 3136 3137 3136 3136 3136 3136 3136 3136 3136 3136 3136 3137 3138 3137 3137 3138 3138 3138 3139 3139 3140 3140 3140 3140 3141 3141 3141 3140 3140 3139 3140 3141 3141 3142 3143 3145 3144 3142 3140 3143 3145 3144 3144 3144 3144 3146 3149 3151 3151 3152 3154 3156 3157 3159 3159 3159 3158 3159 3160 3160 3160 3161 3162 3163 3165 3166
3128 3128 3129 3130 3131 3131 3131 3132 3134 3134 3134 3134 3134 3135 3136 3136 3135 3135 3136 3137 3137 3137 3137 3137 3137 3137 3137 3136 3136 3137 3137 3137 3137 3138 3138 3138 3138 3139 3139 3139 3139 3139 3140 3140 3140 3140 3141 3141 3142 3142 3141 3140 3140 3140 3140 3142 3144 3143 3142 3143 3143 3144 3146 3147 3148 3149 3150 3152 3154 3155 3155 3156 3156 3156 3157 3158 3158 3158 3158 3158 3158 3158 3159 3159 3161 3162 3164 3166
3128 3128 3130 3130 3130 3131 3131 3132 3133 3135 3134 3134 3135 3135 3136 3136 3135 3135 3136 3136 3137 3137 3137 3137 3136 3136 3137 3137 3137 3138 3138 3138 3138 3138 3139 3139 3140 3140 3140 3140 3140 3140 3140 3140 3141 3141 3141 3141 3142 3142 3142 3140 3140 3140 3141 3143 3143 3141 3142 3145 3144 3144 3147 3149 3151 3152 3153 3156 3157 3158 3158 3158 3158 3157 3157 3157 3157 3157 3157 3157 3157 3157 3157 3158 3159 3160 3162 3164
3128 3129 3130 3130 3130 3131 3132 3132 3133 3134 3134 3134 3134 3135 3136 3136 3135 3135 3136 3136 3136 3136 3136 3136 3136 3136 3137 3137 3137 3137 3137 3138 3138 3138 3138 3139 3139 3140 3140 3140 3140 3141 3141 3141 3141 3141 3141 3141 3141 3142 3142 3140 3140 3140 3141 3141 3142 3144 3147 3148 3147 3148 3149 3150 3152 3153 3154 3156 3157 3158 3158 3158 3158 3158 3157 3158 3157 3157 3157 3157 3157 3157 3158 3158 3158 3159 3160 3162